sat.trackr.live / text

‹ back to catalog

STARLINK-2618

NORAD 48693 · 2021-044BH

PAYLOAD ACTIVE UNKNOWN

§ Identity

Operator
Country
US
Launch date
2021-05-26
Launch site
AFETR
Launch vehicle
Mass (kg)
RCS (m²)

Purposes: comms

External: N2YO · Heavens-Above · Gunter

§ Orbital elements

Epoch: 2026-09-19T13:42:24.094944Z

Period
94.01 min
Inclination
53.1599°
Eccentricity
0.0001260
Mean motion
15.31698114 rev/d
Perigee alt
469.9 km
Apogee alt
471.6 km
Semi-major
6,848.9 km
B*
1.3823e-5
RAAN
252.9536°
Arg perigee
77.9973°
Mean anomaly
282.1170°
Rev number
29,407

§ Raw data

STARLINK-26181 48693U 21044BH  26262.57111221  .00000064  00000+0  13823-4 0  99992 48693  53.1599 252.9536 0001260  77.9973 282.1170 15.31698114294079

JSON: /api/v1/satellites/48693 · /tle

For live sub-satellite position, see the globe view (requires WebGL).

§ Visibility from observer

Set your observer location to see the next 7 days of passes ≥ 10°. The values pass through the URL so the page stays shareable.

No JS? Fill the form by hand. The geolocation button needs JavaScript.